Location: Unspecified
(50.7693°N, 0.0000°E)
Time: 20:35:19
(UTC+00:00)

Vanguard 2 - Pass Details

Date: 17 June 2019
Orbit: 553 x 2938 km, 32.9° (Epoch: 15 July)

Event Time Altitude Azimuth Distance (km) Brightness Sun altitude
Rises 12:44:20 0° 252° (WSW) 4,570 11.7 61.3°
Reaches altitude 10° 12:47:25 10° 242° (WSW) 3,905 11.6 61.2°
Maximum altitude 12:56:32 31° 185° (S) 3,302 11.9 60.6°
Drops below altitude 10° 13:09:16 10° 132° (SE) 5,501 12.1 59.6°
Sets 13:14:41 0° 124° (SE) 6,698 12.3 59.1°
